| time (UTC) | temp C | wind direction | speed KPH | gust KPH | rain 1hr cm | rain 24hr cm | rain mn cm | humidity % | barometer mb |
| 20260504220009 | 12 | 8 | 17.7 | 22.5 | 0.00 | 0.00 | 0.00 | 33 | 1017.1 |
| 20260504215505 | 12 | 2 | 12.9 | 17.7 | 0.00 | 0.00 | 0.00 | 33 | 1016.9 |
| 20260504215003 | 12 | 353 | 11.3 | 12.9 | 0.00 | 0.00 | 0.00 | 32 | 1016.8 |
| 20260504214458 | 12 | 12 | 8.0 | 11.3 | 0.00 | 0.00 | 0.00 | 32 | 1016.7 |
| 20260504213955 | 13 | 24 | 30.6 | 40.2 | 0.00 | 0.00 | 0.00 | 30 | 1016.7 |
| 20260504213451 | 13 | 17 | 12.9 | 17.7 | 0.00 | 0.00 | 0.00 | 31 | 1016.8 |
| 20260504212949 | 13 | 357 | 14.5 | 16.1 | 0.00 | 0.00 | 0.00 | 31 | 1016.9 |
| 20260504212444 | 13 | 8 | 14.5 | 17.7 | 0.00 | 0.00 | 0.00 | 31 | 1016.8 |
| 20260504211942 | 13 | 15 | 19.3 | 22.5 | 0.00 | 0.00 | 0.00 | 30 | 1016.8 |
| 20260504211438 | 13 | 353 | 22.5 | 25.7 | 0.00 | 0.00 | 0.00 | 29 | 1016.8 |
| 20260504210936 | 13 | 12 | 24.1 | 33.8 | 0.00 | 0.00 | 0.00 | 29 | 1016.7 |
| 20260504210433 | 13 | 7 | 19.3 | 24.1 | 0.00 | 0.00 | 0.00 | 30 | 1016.8 |
| 20260504205930 | 13 | 319 | 12.9 | 17.7 | 0.00 | 0.00 | 0.00 | 29 | 1016.8 |
| 20260504205427 | 13 | 15 | 14.5 | 16.1 | 0.00 | 0.00 | 0.00 | 30 | 1016.7 |
| 20260504204925 | 13 | 1 | 14.5 | 25.7 | 0.00 | 0.00 | 0.00 | 30 | 1016.6 |
| 20260504204423 | 13 | 5 | 11.3 | 16.1 | 0.00 | 0.00 | 0.00 | 32 | 1016.7 |
| 20260504203922 | 13 | 7 | 14.5 | 17.7 | 0.00 | 0.00 | 0.00 | 31 | 1016.8 |
| 20260504203420 | 14 | 332 | 12.9 | 17.7 | 0.00 | 0.00 | 0.00 | 30 | 1016.7 |
| 20260504202915 | 13 | 353 | 6.4 | 9.7 | 0.00 | 0.00 | 0.00 | 32 | 1016.6 |
| 20260504202412 | 15 | 2 | 11.3 | 12.9 | 0.00 | 0.00 | 0.00 | 30 | 1016.8 |
| 20260504201909 | 13 | 359 | 19.3 | 25.7 | 0.00 | 0.00 | 0.00 | 30 | 1016.5 |
| 20260504201406 | 13 | 24 | 14.5 | 16.1 | 0.00 | 0.00 | 0.00 | 31 | 1016.6 |
| 20260504200903 | 13 | 357 | 30.6 | 38.6 | 0.00 | 0.00 | 0.00 | 30 | 1016.4 |
| 20260504200400 | 13 | 22 | 9.7 | 14.5 | 0.00 | 0.00 | 0.00 | 31 | 1016.5 |
| 20260504195857 | 14 | 328 | 9.7 | 12.9 | 0.00 | 0.00 | 0.00 | 31 | 1016.6 |
| 20260504195352 | 13 | 327 | 9.7 | 14.5 | 0.00 | 0.00 | 0.00 | 31 | 1016.5 |
| 20260504194849 | 15 | 330 | 12.9 | 20.9 | 0.00 | 0.00 | 0.00 | 30 | 1016.6 |
| 20260504194345 | 13 | 10 | 8.0 | 11.3 | 0.00 | 0.00 | 0.00 | 32 | 1016.5 |
| 20260504193841 | 13 | 357 | 20.9 | 24.1 | 0.00 | 0.00 | 0.00 | 31 | 1016.7 |
| 20260504193339 | 14 | 332 | 11.3 | 14.5 | 0.00 | 0.00 | 0.00 | 31 | 1016.6 |
| 20260504192838 | 14 | 2 | 22.5 | 27.4 | 0.00 | 0.00 | 0.00 | 30 | 1016.7 |
| 20260504192335 | 15 | 6 | 11.3 | 12.9 | 0.00 | 0.00 | 0.00 | 30 | 1016.7 |
| 20260504191833 | 15 | 0 | 11.3 | 16.1 | 0.00 | 0.00 | 0.00 | 31 | 1016.6 |
| 20260504191330 | 14 | 348 | 14.5 | 16.1 | 0.00 | 0.00 | 0.00 | 30 | 1016.7 |
| 20260504190826 | 14 | 342 | 20.9 | 29.0 | 0.00 | 0.00 | 0.00 | 30 | 1016.6 |
| 20260504190322 | 15 | 1 | 6.4 | 9.7 | 0.00 | 0.00 | 0.00 | 33 | 1016.7 |
| 20260504185819 | 15 | 355 | 8.0 | 8.0 | 0.00 | 0.00 | 0.00 | 30 | 1016.8 |
| 20260504185316 | 14 | 347 | 9.7 | 12.9 | 0.00 | 0.00 | 0.00 | 30 | 1016.7 |
| 20260504184812 | 15 | 336 | 12.9 | 14.5 | 0.00 | 0.00 | 0.00 | 31 | 1016.7 |
| 20260504184308 | 14 | 340 | 11.3 | 16.1 | 0.00 | 0.00 | 0.00 | 33 | 1016.8 |
| 20260504183803 | 14 | 330 | 11.3 | 12.9 | 0.00 | 0.00 | 0.00 | 32 | 1016.8 |
| 20260504183301 | 15 | 356 | 14.5 | 17.7 | 0.00 | 0.00 | 0.00 | 32 | 1016.8 |
| 20260504182759 | 15 | 330 | 12.9 | 16.1 | 0.00 | 0.00 | 0.00 | 33 | 1016.7 |
| 20260504182255 | 14 | 356 | 8.0 | 9.7 | 0.00 | 0.00 | 0.00 | 34 | 1017.1 |
| 20260504181753 | 15 | 331 | 14.5 | 16.1 | 0.00 | 0.00 | 0.00 | 32 | 1016.8 |
| 20260504181250 | 14 | 357 | 14.5 | 20.9 | 0.00 | 0.00 | 0.00 | 32 | 1016.8 |
| 20260504180749 | 14 | 342 | 14.5 | 20.9 | 0.00 | 0.00 | 0.00 | 32 | 1017.1 |
| 20260504180248 | 15 | 6 | 12.9 | 17.7 | 0.00 | 0.00 | 0.00 | 33 | 1016.8 |
| 20260504175745 | 13 | 17 | 17.7 | 22.5 | 0.00 | 0.00 | 0.00 | 33 | 1016.9 |
| 20260504175242 | 13 | 12 | 9.7 | 12.9 | 0.00 | 0.00 | 0.00 | 35 | 1017.1 |
| 20260504174739 | 13 | 353 | 16.1 | 25.7 | 0.00 | 0.00 | 0.00 | 34 | 1017.1 |
| 20260504174237 | 13 | 6 | 19.3 | 27.4 | 0.00 | 0.00 | 0.00 | 36 | 1017.2 |
| 20260504173733 | 13 | 333 | 11.3 | 16.1 | 0.00 | 0.00 | 0.00 | 36 | 1016.9 |
| 20260504173231 | 13 | 344 | 9.7 | 11.3 | 0.00 | 0.00 | 0.00 | 36 | 1016.9 |
| 20260504172727 | 13 | 10 | 19.3 | 22.5 | 0.00 | 0.00 | 0.00 | 34 | 1016.9 |
| 20260504172224 | 13 | 335 | 9.7 | 11.3 | 0.00 | 0.00 | 0.00 | 35 | 1016.9 |
| 20260504171720 | 12 | 22 | 8.0 | 12.9 | 0.00 | 0.00 | 0.00 | 38 | 1017.1 |
| 20260504171217 | 12 | 343 | 8.0 | 11.3 | 0.00 | 0.00 | 0.00 | 41 | 1017.1 |
| 20260504170714 | 12 | 357 | 8.0 | 11.3 | 0.00 | 0.00 | 0.00 | 40 | 1017.1 |
| 20260504170212 | 12 | 0 | 8.0 | 9.7 | 0.00 | 0.00 | 0.00 | 41 | 1016.9 |
| 20260504160130 | 11 | 327 | 4.8 | 8.0 | 0.00 | 0.00 | 0.00 | 45 | 1017.2 |
| 20260504151057 | 10 | 309 | 4.8 | 8.0 | 0.00 | 0.00 | 0.00 | 57 | 1017.2 |
| 20260504150555 | 10 | 320 | 4.8 | 4.8 | 0.00 | 0.00 | 0.00 | 57 | 1017.3 |
| 20260504141020 | 8 | 298 | 3.2 | 3.2 | 0.00 | 0.00 | 0.00 | 62 | 1017.4 |
| 20260504140517 | 8 | 292 | 3.2 | 3.2 | 0.00 | 0.00 | 0.00 | 62 | 1017.5 |
| 20260504130441 | 7 | 320 | 3.2 | 4.8 | 0.00 | 0.00 | 0.00 | 65 | 1017.4 |
| 20260504110328 | 7 | 34 | 0.0 | 0.0 | 0.00 | 0.00 | 0.00 | 67 | 1017.6 |
| 20260504100246 | 8 | 33 | 3.2 | 3.2 | 0.00 | 0.00 | 0.00 | 62 | 1017.8 |
| 20260504081639 | 10 | 51 | 20.9 | 24.1 | 0.00 | 0.00 | 0.00 | 51 | 1016.8 |
| 20260504081135 | 10 | 29 | 19.3 | 22.5 | 0.00 | 0.00 | 0.00 | 50 | 1016.9 |
| 20260504080632 | 10 | 41 | 20.9 | 25.7 | 0.00 | 0.00 | 0.00 | 49 | 1016.9 |
| 20260504080128 | 10 | 38 | 22.5 | 25.7 | 0.00 | 0.00 | 0.00 | 49 | 1017.1 |
| 20260504050445 | 13 | 43 | 17.7 | 20.9 | 0.00 | 0.00 | 0.00 | 38 | 1011.7 |
| 20260504045942 | 13 | 34 | 8.0 | 9.7 | 0.00 | 0.00 | 0.00 | 39 | 1011.5 |
| 20260504045437 | 13 | 29 | 9.7 | 11.3 | 0.00 | 0.00 | 0.00 | 38 | 1011.3 |
| 20260504044934 | 13 | 43 | 8.0 | 8.0 | 0.00 | 0.00 | 0.00 | 38 | 1011.3 |
| 20260504044432 | 13 | 29 | 8.0 | 9.7 | 0.00 | 0.00 | 0.00 | 38 | 1011.0 |
| 20260504043929 | 14 | 41 | 8.0 | 11.3 | 0.00 | 0.00 | 0.00 | 38 | 1010.8 |
| 20260504043426 | 14 | 17 | 8.0 | 11.3 | 0.00 | 0.00 | 0.00 | 38 | 1010.8 |
| 20260504042923 | 14 | 29 | 8.0 | 11.3 | 0.00 | 0.00 | 0.00 | 37 | 1010.5 |
| 20260504042420 | 15 | 13 | 8.0 | 9.7 | 0.00 | 0.00 | 0.00 | 36 | 1010.6 |
| 20260504041916 | 15 | 21 | 9.7 | 11.3 | 0.00 | 0.00 | 0.00 | 36 | 1010.4 |
| 20260504041412 | 15 | 40 | 9.7 | 11.3 | 0.00 | 0.00 | 0.00 | 35 | 1010.4 |
| 20260504040908 | 15 | 25 | 6.4 | 9.7 | 0.00 | 0.00 | 0.00 | 35 | 1010.0 |
| 20260504040406 | 15 | 36 | 12.9 | 14.5 | 0.00 | 0.00 | 0.00 | 36 | 1009.9 |
| 20260504035902 | 15 | 21 | 14.5 | 16.1 | 0.00 | 0.00 | 0.00 | 34 | 1009.9 |
| 20260504035400 | 15 | 19 | 14.5 | 17.7 | 0.00 | 0.00 | 0.00 | 35 | 1009.8 |
| 20260504034856 | 15 | 23 | 9.7 | 12.9 | 0.00 | 0.00 | 0.00 | 36 | 1009.8 |
| 20260504034354 | 15 | 49 | 12.9 | 16.1 | 0.00 | 0.00 | 0.00 | 35 | 1009.7 |
| 20260504033850 | 16 | 22 | 14.5 | 16.1 | 0.00 | 0.00 | 0.00 | 34 | 1009.5 |
| 20260504033349 | 16 | 26 | 14.5 | 16.1 | 0.00 | 0.00 | 0.00 | 34 | 1009.5 |
| 20260504032845 | 16 | 41 | 17.7 | 24.1 | 0.00 | 0.00 | 0.00 | 33 | 1009.3 |
| 20260504032342 | 16 | 32 | 11.3 | 12.9 | 0.00 | 0.00 | 0.00 | 32 | 1009.0 |
| 20260504031839 | 16 | 21 | 11.3 | 12.9 | 0.00 | 0.00 | 0.00 | 31 | 1008.8 |
| 20260504031336 | 16 | 27 | 9.7 | 11.3 | 0.00 | 0.00 | 0.00 | 29 | 1008.6 |
| 20260504030832 | 16 | 24 | 11.3 | 12.9 | 0.00 | 0.00 | 0.00 | 28 | 1008.6 |
| 20260504030330 | 15 | 40 | 17.7 | 20.9 | 0.00 | 0.00 | 0.00 | 30 | 1008.5 |
| 20260504025826 | 15 | 11 | 3.2 | 3.2 | 0.00 | 0.00 | 0.00 | 33 | 1008.7 |
| 20260504025323 | 15 | 15 | 3.2 | 3.2 | 0.00 | 0.00 | 0.00 | 32 | 1008.3 |
| 20260504024819 | 15 | 14 | 1.6 | 3.2 | 0.00 | 0.00 | 0.00 | 31 | 1008.3 |
| 20260504024316 | 15 | 17 | 1.6 | 1.6 | 0.00 | 0.00 | 0.00 | 31 | 1008.2 |
| 20260504023813 | 16 | 22 | 1.6 | 1.6 | 0.00 | 0.00 | 0.00 | 31 | 1008.3 |
| 20260504023309 | 16 | 29 | 3.2 | 3.2 | 0.00 | 0.00 | 0.00 | 31 | 1008.4 |
| 20260504022805 | 17 | 28 | 1.6 | 3.2 | 0.00 | 0.00 | 0.00 | 31 | 1008.3 |
| 20260504022304 | 17 | 35 | 1.6 | 1.6 | 0.00 | 0.00 | 0.00 | 29 | 1008.3 |
| 20260504021758 | 18 | 32 | 3.2 | 3.2 | 0.00 | 0.00 | 0.00 | 28 | 1008.4 |
| 20260504021256 | 18 | 29 | 4.8 | 4.8 | 0.00 | 0.00 | 0.00 | 27 | 1008.4 |
| 20260504020753 | 19 | 24 | 3.2 | 3.2 | 0.00 | 0.00 | 0.00 | 26 | 1008.3 |
| 20260504020249 | 19 | 25 | 4.8 | 4.8 | 0.00 | 0.00 | 0.00 | 27 | 1008.5 |
| 20260504015745 | 20 | 13 | 4.8 | 4.8 | 0.00 | 0.00 | 0.00 | 26 | 1008.4 |
| 20260504015242 | 20 | 26 | 6.4 | 8.0 | 0.00 | 0.00 | 0.00 | 25 | 1008.3 |
| 20260504014737 | 20 | 11 | 4.8 | 4.8 | 0.00 | 0.00 | 0.00 | 25 | 1008.2 |
| 20260504014234 | 21 | 12 | 6.4 | 8.0 | 0.00 | 0.00 | 0.00 | 24 | 1008.3 |
| 20260504013732 | 22 | 20 | 8.0 | 9.7 | 0.00 | 0.00 | 0.00 | 22 | 1008.3 |
| 20260504013230 | 22 | 21 | 9.7 | 11.3 | 0.00 | 0.00 | 0.00 | 22 | 1008.2 |
| 20260504012726 | 22 | 20 | 8.0 | 11.3 | 0.00 | 0.00 | 0.00 | 23 | 1008.2 |
| 20260504012224 | 22 | 335 | 6.4 | 12.9 | 0.00 | 0.00 | 0.00 | 23 | 1008.2 |
| 20260504011721 | 22 | 25 | 8.0 | 11.3 | 0.00 | 0.00 | 0.00 | 21 | 1008.4 |
| 20260504011217 | 22 | 17 | 11.3 | 12.9 | 0.00 | 0.00 | 0.00 | 21 | 1008.2 |
| 20260504010713 | 23 | 26 | 11.3 | 11.3 | 0.00 | 0.00 | 0.00 | 21 | 1008.2 |
| 20260504010210 | 23 | 22 | 9.7 | 11.3 | 0.00 | 0.00 | 0.00 | 20 | 1008.4 |
| 20260504005706 | 23 | 21 | 17.7 | 17.7 | 0.00 | 0.00 | 0.00 | 19 | 1008.5 |
| 20260504005203 | 23 | 17 | 12.9 | 12.9 | 0.00 | 0.00 | 0.00 | 19 | 1008.3 |
| 20260504004701 | 24 | 24 | 11.3 | 16.1 | 0.00 | 0.00 | 0.00 | 19 | 1008.3 |
| 20260504004157 | 23 | 9 | 8.0 | 8.0 | 0.00 | 0.00 | 0.00 | 19 | 1008.3 |
| 20260504003654 | 24 | 15 | 8.0 | 11.3 | 0.00 | 0.00 | 0.00 | 18 | 1008.4 |
| 20260504003151 | 24 | 8 | 12.9 | 14.5 | 0.00 | 0.00 | 0.00 | 18 | 1008.5 |
| 20260504002648 | 25 | 8 | 9.7 | 11.3 | 0.00 | 0.00 | 0.00 | 18 | 1008.6 |
| 20260504002145 | 25 | 348 | 4.8 | 4.8 | 0.00 | 0.00 | 0.00 | 18 | 1008.4 |
| 20260504001643 | 25 | 312 | 4.8 | 4.8 | 0.00 | 0.00 | 0.00 | 17 | 1008.4 |
| 20260504001139 | 25 | 303 | 3.2 | 3.2 | 0.00 | 0.00 | 0.00 | 19 | 1008.5 |
| 20260504000636 | 25 | 347 | 9.7 | 11.3 | 0.00 | 0.00 | 0.00 | 18 | 1008.5 |
| 20260504000133 | 25 | 314 | 4.8 | 4.8 | 0.00 | 0.00 | 0.00 | 17 | 1008.5 |
| 20260503235631 | 25 | 346 | 6.4 | 9.7 | 0.00 | 0.00 | 0.00 | 17 | 1008.7 |
| 20260503235128 | 25 | 14 | 4.8 | 11.3 | 0.00 | 0.00 | 0.00 | 17 | 1008.8 |
| 20260503234626 | 25 | 294 | 3.2 | 3.2 | 0.00 | 0.00 | 0.00 | 17 | 1008.6 |
| 20260503234124 | 25 | 319 | 3.2 | 4.8 | 0.00 | 0.00 | 0.00 | 17 | 1008.7 |
| 20260503233621 | 25 | 258 | 3.2 | 3.2 | 0.00 | 0.00 | 0.00 | 15 | 1009.0 |
| 20260503233116 | 25 | 2 | 9.7 | 12.9 | 0.00 | 0.00 | 0.00 | 17 | 1008.6 |
| 20260503232613 | 25 | 322 | 6.4 | 11.3 | 0.00 | 0.00 | 0.00 | 17 | 1008.8 |
| 20260503232111 | 25 | 338 | 11.3 | 12.9 | 0.00 | 0.00 | 0.00 | 16 | 1009.0 |
| 20260503231609 | 25 | 348 | 6.4 | 9.7 | 0.00 | 0.00 | 0.00 | 17 | 1008.8 |
| 20260503231105 | 24 | 334 | 4.8 | 4.8 | 0.00 | 0.00 | 0.00 | 17 | 1009.1 |
| 20260503230602 | 25 | 312 | 4.8 | 8.0 | 0.00 | 0.00 | 0.00 | 16 | 1009.1 |
| 20260503230059 | 25 | 344 | 9.7 | 11.3 | 0.00 | 0.00 | 0.00 | 16 | 1009.2 |
| 20260503225556 | 24 | 327 | 6.4 | 8.0 | 0.00 | 0.00 | 0.00 | 17 | 1009.4 |
| 20260503225051 | 25 | 318 | 8.0 | 11.3 | 0.00 | 0.00 | 0.00 | 17 | 1009.3 |
| 20260503224549 | 25 | 19 | 9.7 | 12.9 | 0.00 | 0.00 | 0.00 | 16 | 1009.5 |
| 20260503224046 | 24 | 340 | 9.7 | 11.3 | 0.00 | 0.00 | 0.00 | 17 | 1009.5 |
| 20260503223544 | 24 | 305 | 9.7 | 14.5 | 0.00 | 0.00 | 0.00 | 17 | 1009.5 |
| 20260503223039 | 25 | 315 | 8.0 | 9.7 | 0.00 | 0.00 | 0.00 | 16 | 1009.6 |
| 20260503222538 | 25 | 346 | 9.7 | 11.3 | 0.00 | 0.00 | 0.00 | 16 | 1009.8 |
| 20260503222035 | 24 | 354 | 4.8 | 8.0 | 0.00 | 0.00 | 0.00 | 18 | 1009.6 |
| 20260503221533 | 24 | 309 | 8.0 | 9.7 | 0.00 | 0.00 | 0.00 | 17 | 1009.8 |
| 20260503221031 | 24 | 263 | 1.6 | 3.2 | 0.00 | 0.00 | 0.00 | 17 | 1009.8 |
| 20260503220527 | 25 | 23 | 1.6 | 4.8 | 0.00 | 0.00 | 0.00 | 18 | 1009.8 |